Home > Weather > Mendrisio > Past weeks

Flag for Switzerland Weather for the Past 2 Weeks in Mendrisio, Ticino, Switzerland

Now
47 °F

Cool.


Feels Like: 47 °F
Forecast: 40 / 57 °F
Wind: 1 mph from Southwest

Location: Stabio

Current Time: May 7, 2016 at 2:47:49 AM

Latest Report: May 7, 2016 at 2:00 AM


Visibility: N/A

Pressure: 30.04 "Hg

Humidity: 86%

Dew Point: 43 °F

Location of MendrisioLocation

Historic Weather in Mendrisio — Graph

°F

Mendrisio Temperature Yesterday

Maximum temperature yesterday: 71 °F (at 3:00 PM)
Minimum temperature yesterday: 42 °F (at 6:00 AM)
Average temperature yesterday: 56 °F

High & Low Weather Summary for the Past Weeks

 TemperatureHumidityPressure
High72 °F (May 3, 2:00 PM)100% (May 1, 11:00 AM)30.22 "Hg (May 1, 11:00 AM)
Low39 °F (Apr 26, 5:00 AM)13% (May 4, 3:00 PM)29.54 "Hg (Apr 24, 6:00 AM)
Average55 °F56%29.91 "Hg
* Reported Apr 22 1:00 AM — May 7 1:00 AM, Mendrisio, Weather by CustomWeather, © 2016

Note: Actual official high and low records may vary slightly from our data, if they occured in-between our weather recording intervals... More about our weather records

Advertising

Mendrisio Weather History for the Previous 24 Hours

Scroll right to see more
 ConditionsComfort  
Time TempWeatherWind HumidityBarometerVisibility
1:00 AM
Sat, May 7
48 °FCool.1 mph77%30.05 "HgN/A
12:00 AM50 °FCool.1 mph75%30.04 "HgN/A
11:00 PM
Fri, May 6
51 °FCool.1 mph74%30.04 "HgN/A
10:00 PM53 °FCool.1 mph63%30.04 "HgN/A
9:00 PM54 °FCool.1 mph69%30.02 "HgN/A
8:00 PM62 °FRefreshingly cool.1 mph57%29.99 "HgN/A
7:00 PM66 °FMild.3 mph40%29.98 "HgN/A
6:00 PM68 °FMild.3 mph39%29.98 "HgN/A
5:00 PM70 °FMild.5 mph36%29.99 "HgN/A
4:00 PM68 °FMild.5 mph37%30.01 "HgN/A
3:00 PM71 °FMild.5 mph37%30.01 "HgN/A
2:00 PM70 °FMild.6 mph36%30.03 "HgN/A
1:00 PM69 °FMild.5 mph37%30.04 "HgN/A
12:00 PM67 °FMild.3 mph33%30.06 "HgN/A
11:00 AM65 °FMild.3 mph43%30.08 "HgN/A
10:00 AM61 °FRefreshingly cool.5 mph54%30.10 "HgN/A
9:00 AM57 °FRefreshingly cool.3 mph59%30.12 "HgN/A
8:00 AM50 °FCool.1 mph89%30.15 "HgN/A
7:00 AM42 °FQuite cool.1 mph93%30.18 "HgN/A
6:00 AM42 °FQuite cool.2 mph92%30.19 "HgN/A
5:00 AM42 °FQuite cool.2 mph93%30.19 "HgN/A
4:00 AM42 °FQuite cool.2 mph96%30.20 "HgN/A
3:00 AM43 °FQuite cool.2 mph88%30.21 "HgN/A
2:00 AM44 °FQuite cool.2 mph89%30.21 "HgN/A
Weather by CustomWeather, © 2016

See weather overviewHow to use our weather pages